QPF
0.00 0.00 0.00 0.00 0.00 0.00 0.00 0.00 0.00 0.00 0.00 0.00 0.00 0.00 0.00 0.00 0.00 0.00 0.00 0.00 0.00 0.00 0.00 0.00 0.00 0.00 0.00 0.00 0.00 0.00 0.00 0.00
0.00 0.00 0.00 0.00 0.00 0.00 0.00 0.00 0.00 0.00 0.00 0.00 0.00 0.00 0.00 0.00 0.00 0.00 0.00 0.00 0.00 0.00 0.00 0.00 0.00 0.00 0.00 0.00 0.00 0.00 0.00 0.00
0.00 0.00 0.00 0.00 0.00 0.00 0.00 0.00 0.00 0.00 0.00 0.00 0.00 0.00 0.00 0.00 0.00 0.00 0.00 0.00 0.00 0.00 0.00 0.00 0.00 0.00 0.00 0.00 0.00 0.00 0.00 0.00
0.00 0.00 0.00 0.00 0.00 0.00 0.00 0.00 0.00 0.00 0.00 0.00 0.00 0.00 0.00 0.00 0.00 0.00 0.00 0.00 0.00 0.00 0.00 0.00 0.00 0.00 0.00 0.00 0.00 0.00 0.00 0.00
0.00 0.00 0.00 0.00 0.00 0.00 0.00 0.00 0.00 0.00 0.00 0.00 0.00 0.00 0.00 0.00 0.00 0.00 0.00 0.00 0.00 0.00 0.00 0.00 0.00 0.00 0.00 0.00 0.00 0.00 0.00 0.00
0.00 0.00 0.00 0.00 0.00 0.00 0.00 0.00 0.00 0.00 0.00 0.00 0.00 0.00 0.00 0.00 0.00 0.00 0.00 0.00 0.00 0.00 0.00 0.00 0.00 0.00 0.00 0.00 0.00 0.00 0.00 0.00
0.00 0.00 0.00 0.00 0.00 0.00 0.00 0.00 0.00 0.00 0.00 0.00 0.00 0.00 0.00 0.00 0.00 0.00 0.00 0.00 0.00 0.00 0.00 0.00 0.00 0.00 0.00 0.00 0.00 0.00 0.00 0.00
0.00 0.00 0.00 0.00 0.00 0.00 0.00 0.00 0.00 0.00 0.00 0.00 0.00 0.00 0.00 0.00 0.00 0.00 0.00 0.00 0.00 0.00 0.00 0.00 0.00 0.00 0.00 0.00 0.00 0.00 0.00 0.00
0.00 0.00 0.00 0.00 0.00 0.00 0.00 0.00 0.00 0.00 0.00 0.00 0.00 0.00 0.00 0.00 0.00 0.00 0.00 0.00 0.00 0.00 0.00 0.00 0.00 0.00 0.00 0.00 0.00 0.00 0.00 0.00
0.00 0.00 0.00 0.00 0.00 0.00 0.00 0.00 0.00 0.00 0.00 0.00 0.00 0.00 0.00 0.00 0.00 0.00 0.00 0.00 0.00 0.00 0.00 0.00 0.00 0.00 0.00 0.00 0.00 0.00 0.00 0.00
0.00 0.00 0.00 0.00 0.00 0.00 0.00 0.00 0.00 0.00 0.00 0.00 0.00 0.00 0.00 0.00 0.00 0.00 0.00 0.00 0.00 0.00 0.00 0.00 0.00 0.00 0.00 0.00 0.00 0.00 0.00 0.00
0.00 0.00 0.00 0.00 0.00 0.00 0.00 0.00 0.00 0.00 0.00 0.00 0.00 0.00 0.00 0.00 0.00 0.00 0.00 0.00 0.00 0.00 0.00 0.00 0.00 0.00 0.00 0.00 0.00 0.00 0.00 0.00
0.00 0.00 0.00 0.00 0.00 0.00 0.00 0.00 0.00 0.00 0.00 0.00 0.00 0.00 0.00 0.00 0.00 0.00 0.00 0.00 0.00 0.00 0.00 0.00 0.00 0.00 0.00 0.00 0.00 0.00 0.00 0.00
0.00 0.00 0.00 0.00 0.00 0.00 0.00 0.00 0.00 0.00 0.00 0.00 0.00 0.00 0.00 0.00 0.00 0.00 0.00 0.00 0.01 0.01 0.01 0.00 0.00 0.00 0.00 0.00 0.00 0.00 0.00 0.00
0.00 0.00 0.00 0.00 0.00 0.00 0.00 0.00 0.00 0.00 0.00 0.00 0.00 0.00 0.00 0.00 0.00 0.00 0.01 0.01 0.01 0.01 0.00 0.00 0.00 0.00 0.00 0.00 0.00 0.00 0.00 0.00
0.00 0.00 0.00 0.00 0.00 0.00 0.00 0.00 0.00 0.00 0.00 0.00 0.00 0.00 0.00 0.00 0.00 0.00 0.00 0.00 0.00 0.00 0.00 0.00 0.00 0.00 0.00 0.00 0.00 0.00 0.00 0.00
0.00 0.00 0.00 0.00 0.00 0.00 0.00 0.00 0.00 0.00 0.00 0.00 0.00 0.00 0.00 0.00 0.00 0.00 0.00 0.00 0.00 0.00 0.00 0.00 0.00 0.00 0.00 0.00 0.00 0.00 0.00 0.00
0.00 0.00 0.00 0.00 0.00 0.00 0.00 0.00 0.00 0.00 0.00 0.00 0.00 0.00 0.00 0.00 0.00 0.00 0.00 0.00 0.00 0.00 0.00 0.00 0.00 0.00 0.00 0.00 0.00 0.00 0.00 0.00
0.00 0.00 0.00 0.00 0.00 0.00 0.00 0.00 0.00 0.00 0.00 0.00 0.00 0.00 0.00 0.00 0.00 0.00 0.00 0.00 0.00 0.00 0.00 0.00 0.00 0.00 0.00 0.00 0.00 0.00 0.00 0.00
MSLP
1014.97 1015.46 1015.69 1015.87 1016.42 1016.71 1017.02 1017.47 1017.92 1018.47 1018.64 1018.89 1018.78 1018.84 1018.79 1018.88 1018.67 1018.61 1018.91 1018.93 1019.08 1018.92 1018.44 1018.13 1018.05 1017.79 1017.44 1017.18 1017.05 1016.87 1016.66 1016.54
1015.54 1016.23 1016.48 1016.62 1017.10 1017.17 1017.41 1017.77 1018.58 1018.64 1018.71 1018.77 1018.61 1018.54 1018.48 1018.44 1018.53 1019.11 1019.19 1019.02 1018.93 1018.79 1018.40 1018.08 1017.77 1017.44 1017.24 1017.10 1016.75 1016.34 1016.19 1016.06
1016.01 1016.46 1016.98 1017.30 1017.61 1017.93 1018.19 1018.52 1018.80 1018.89 1018.91 1019.07 1019.24 1019.27 1018.90 1019.00 1018.85 1018.86 1018.68 1018.86 1018.74 1018.63 1018.47 1018.10 1017.65 1017.30 1016.93 1016.73 1016.56 1016.06 1015.61 1015.62
1016.38 1016.90 1017.41 1017.81 1018.22 1018.43 1018.53 1018.78 1019.07 1019.44 1019.44 1019.22 1019.07 1018.81 1018.72 1018.62 1018.93 1018.71 1018.53 1018.57 1018.55 1018.41 1018.09 1017.88 1017.49 1017.10 1016.49 1016.11 1015.99 1015.72 1015.06 1014.83
1017.16 1017.63 1018.13 1018.56 1018.92 1019.12 1019.24 1019.48 1019.57 1019.80 1019.81 1019.51 1019.55 1019.23 1019.17 1019.41 1019.23 1019.05 1019.06 1018.64 1018.31 1018.21 1017.86 1017.40 1017.06 1016.83 1016.39 1015.90 1015.70 1015.74 1015.56 1014.79
1017.97 1018.45 1018.87 1019.30 1019.58 1019.74 1019.89 1019.86 1019.99 1020.05 1020.03 1019.96 1019.56 1019.31 1019.11 1018.91 1018.84 1019.08 1018.78 1017.88 1017.65 1017.53 1017.63 1017.36 1016.91 1016.56 1016.25 1016.33 1016.23 1015.97 1015.84 1016.02
1018.53 1018.99 1019.18 1019.42 1019.85 1019.95 1019.98 1019.94 1019.92 1020.11 1020.04 1020.10 1020.19 1020.14 1019.76 1019.12 1018.79 1018.64 1018.21 1017.81 1017.42 1017.29 1017.49 1017.30 1017.03 1016.85 1016.84 1017.12 1017.59 1017.66 1017.70 1017.88
1018.75 1018.99 1019.13 1019.44 1019.68 1019.85 1019.84 1019.78 1019.68 1019.82 1019.93 1019.83 1019.69 1019.95 1019.52 1019.03 1018.84 1018.41 1018.12 1017.52 1017.22 1017.08 1017.47 1017.25 1017.09 1017.29 1017.55 1017.70 1017.97 1018.26 1018.66 1018.84
1019.15 1019.31 1019.43 1019.53 1019.87 1019.92 1019.92 1019.77 1019.60 1019.64 1019.69 1019.75 1019.52 1019.51 1019.24 1019.04 1018.84 1018.73 1018.35 1017.86 1017.47 1017.46 1017.56 1017.50 1017.39 1017.41 1017.56 1018.00 1018.39 1018.48 1018.34 1018.35
1019.18 1019.26 1019.35 1019.48 1019.61 1019.67 1019.91 1019.65 1019.32 1019.28 1019.41 1019.47 1019.53 1019.57 1019.52 1019.28 1019.11 1018.83 1018.29 1017.96 1017.56 1017.59 1017.49 1017.53 1017.57 1017.74 1017.90 1017.86 1018.00 1017.93 1018.01 1018.21
1019.09 1019.17 1019.28 1019.46 1019.55 1019.60 1019.62 1019.56 1019.43 1019.40 1019.51 1019.62 1019.70 1019.65 1019.49 1019.49 1019.28 1018.81 1018.39 1018.00 1017.77 1017.67 1017.61 1017.73 1017.78 1017.99 1018.16 1018.43 1018.21 1017.85 1017.61 1017.54
1019.40 1019.49 1019.52 1019.68 1019.78 1019.74 1019.70 1019.61 1019.54 1019.50 1019.61 1019.75 1019.76 1019.69 1019.69 1019.63 1019.33 1018.89 1018.48 1018.21 1018.08 1017.93 1017.98 1018.09 1018.38 1018.75 1018.73 1018.31 1018.04 1017.77 1017.35 1016.97
1019.21 1019.34 1019.50 1019.63 1019.74 1019.66 1019.68 1019.97 1019.99 1020.02 1019.93 1019.76 1019.70 1019.75 1019.77 1019.51 1019.39 1019.15 1018.88 1018.49 1018.37 1018.26 1018.23 1018.46 1018.70 1018.72 1018.57 1018.29 1018.05 1017.48 1017.17 1016.75
1019.16 1019.38 1019.56 1019.90 1019.92 1020.14 1020.14 1020.15 1020.15 1020.08 1019.88 1019.73 1019.59 1019.77 1019.75 1019.59 1019.40 1019.21 1019.00 1018.71 1018.49 1018.57 1018.70 1018.82 1018.66 1018.51 1018.44 1018.21 1017.78 1017.43 1017.08 1016.67
1019.55 1019.76 1019.94 1019.94 1020.09 1020.21 1020.33 1020.29 1020.26 1020.10 1020.01 1019.80 1019.54 1019.88 1020.07 1020.41 1020.18 1019.64 1019.42 1019.05 1018.74 1018.62 1018.39 1018.28 1018.17 1018.15 1018.05 1017.82 1017.69 1017.31 1016.95 1016.53
1020.29 1020.35 1020.49 1020.11 1020.19 1020.46 1020.37 1020.29 1020.09 1020.14 1019.76 1019.86 1020.07 1020.35 1020.39 1020.25 1019.83 1019.33 1018.96 1018.73 1018.53 1018.44 1018.39 1018.30 1018.18 1018.05 1017.86 1018.32 1017.96 1017.43 1016.81 1016.31
1020.79 1020.86 1020.53 1020.32 1020.40 1020.44 1020.45 1020.20 1020.19 1020.15 1019.86 1019.96 1019.96 1019.97 1019.75 1019.65 1019.61 1019.45 1019.26 1018.98 1018.67 1018.51 1018.26 1018.08 1017.90 1017.75 1018.34 1018.63 1018.43 1017.50 1016.68 1015.92
1020.81 1020.70 1020.42 1020.35 1020.45 1020.50 1020.24 1020.16 1020.03 1019.96 1019.92 1019.88 1019.83 1019.80 1019.82 1019.79 1019.62 1019.38 1019.22 1018.92 1018.67 1018.36 1018.07 1017.95 1017.88 1017.83 1018.24 1018.38 1018.21 1017.43 1016.51 1015.76
1020.68 1020.38 1020.25 1020.21 1020.33 1020.05 1020.03 1019.73 1019.64 1019.81 1019.80 1019.83 1019.84 1019.90 1019.80 1019.70 1019.53 1019.32 1019.15 1018.83 1018.53 1018.22 1018.02 1018.02 1017.94 1017.74 1018.11 1018.23 1017.99 1017.13 1016.11 1015.49
Thickness
5676 5671 5668 5665 5659 5653 5647 5641 5633 5624 5617 5611 5608 5603 5598 5593 5590 5586 5579 5575 5569 5567 5567 5566 5561 5559 5559 5557 5555 5554 5554 5552
5666 5660 5657 5653 5647 5643 5638 5631 5621 5615 5609 5603 5600 5595 5593 5588 5582 5574 5569 5566 5561 5558 5556 5555 5553 5552 5550 5546 5546 5546 5544 5541
5657 5653 5647 5642 5636 5631 5625 5618 5611 5606 5601 5595 5588 5582 5581 5575 5570 5565 5562 5556 5552 5547 5542 5540 5539 5538 5537 5536 5534 5534 5535 5531
5648 5644 5637 5632 5624 5619 5614 5608 5601 5593 5589 5586 5581 5577 5572 5567 5559 5556 5552 5546 5540 5536 5533 5529 5528 5527 5529 5529 5525 5522 5524 5524
5637 5631 5624 5617 5611 5606 5601 5594 5589 5583 5577 5573 5566 5562 5557 5551 5547 5542 5536 5533 5529 5524 5521 5519 5517 5514 5514 5514 5511 5505 5501 5506
5622 5616 5609 5603 5597 5592 5587 5583 5576 5571 5565 5560 5557 5553 5549 5543 5538 5528 5522 5524 5518 5512 5505 5502 5500 5497 5495 5490 5486 5483 5479 5474
5612 5605 5601 5595 5587 5582 5577 5571 5566 5559 5553 5547 5540 5533 5529 5526 5521 5516 5513 5508 5504 5498 5490 5485 5481 5476 5470 5463 5453 5446 5441 5435
5600 5595 5591 5584 5578 5571 5566 5560 5555 5548 5542 5536 5530 5520 5516 5512 5507 5504 5499 5497 5491 5484 5471 5466 5459 5451 5442 5434 5427 5418 5410 5403
5586 5582 5577 5572 5564 5559 5554 5549 5544 5538 5530 5523 5518 5510 5505 5499 5492 5484 5478 5473 5468 5459 5450 5442 5435 5427 5418 5408 5398 5391 5385 5378
5579 5576 5571 5564 5558 5552 5544 5540 5536 5529 5521 5513 5505 5495 5486 5478 5469 5462 5458 5450 5444 5435 5427 5418 5410 5401 5391 5383 5374 5367 5359 5349
5571 5567 5561 5554 5549 5542 5535 5529 5522 5514 5505 5494 5483 5474 5466 5456 5448 5442 5436 5429 5422 5414 5404 5394 5383 5371 5360 5348 5342 5336 5332 5328
5560 5556 5550 5543 5535 5529 5521 5514 5506 5496 5486 5475 5466 5457 5447 5437 5428 5421 5415 5406 5397 5389 5377 5365 5352 5338 5328 5323 5318 5316 5317 5317
5554 5547 5539 5529 5521 5515 5507 5495 5486 5477 5468 5459 5450 5439 5427 5418 5407 5398 5389 5381 5371 5361 5348 5336 5324 5315 5309 5306 5303 5305 5304 5304
5544 5536 5527 5515 5507 5497 5488 5478 5469 5460 5451 5442 5432 5418 5407 5397 5386 5377 5366 5356 5344 5331 5320 5311 5306 5301 5297 5294 5293 5291 5290 5290
5529 5520 5512 5504 5493 5483 5472 5462 5451 5441 5430 5421 5413 5398 5384 5369 5357 5351 5340 5329 5320 5312 5305 5300 5295 5290 5286 5284 5279 5277 5277 5277
5514 5505 5494 5489 5478 5464 5454 5443 5434 5424 5416 5402 5388 5375 5362 5349 5338 5329 5319 5312 5305 5299 5293 5287 5281 5277 5274 5265 5263 5263 5264 5264
5495 5485 5479 5471 5459 5446 5434 5427 5417 5406 5395 5383 5370 5358 5346 5333 5319 5309 5300 5295 5291 5285 5280 5275 5271 5266 5255 5247 5244 5247 5250 5252
5481 5472 5464 5453 5440 5429 5422 5411 5400 5390 5378 5365 5352 5340 5325 5313 5303 5295 5288 5284 5279 5274 5270 5264 5257 5250 5240 5232 5228 5230 5233 5236
5468 5458 5446 5436 5425 5418 5406 5397 5386 5372 5360 5346 5333 5320 5309 5300 5292 5285 5279 5274 5269 5264 5257 5249 5240 5233 5224 5216 5213 5215 5219 5220